Tracking 25648 objects as of 16-May-2022
HD Live streaming from Space Station
objects crossing your sky now

COSMOS 2251 DEB

Track COSMOS 2251 DEB now!
10-day predictions


NORAD ID: 46434
Int'l Code: 1993-036BWW
Perigee: 700.5 km
Apogee: 731.0 km
Inclination: 74.0 °
Period: 99.0 minutes
Semi major axis: 7086 km
RCS: Unknown
Launch date: June 16, 1993
Source: Commonwealth of Independent States (former USSR) (CIS)
Launch site: PLESETSK MISSILE AND SPACE COMPLEX (PKMTR)

Note: This is SATELLITE DEBRIS
aabbcc
Your satellite tracking list
Your tracking list is empty




NASA's NSSDC Master Catalog

Two Line Element Set (TLE):
1 46434U 93036BWY 22122.49183410  .00009592  00000-0  22134-2 0  9990
2 46434  74.0125  53.5628 0021520  75.9472 284.4081 14.55218832517824
Source of the keplerian elements: AFSPC